Regional Weather Roundup
Issued by NWS

Home | Current Version | Previous Version | Graphics & Text | Print | Product List | Glossary On
Versions: 1 2 3 4 5 6 7 8 9 10 11 12 13 14 15 16 17 18 19 20 21 22 23 24 25 26 27 28 29 30 31 32 33 34 35 36 37 38 39 40 41 42 43 44 45 46 47 48 49 50
000
ASUS43 KIND 272109
RWRIN

WEATHER ROUNDUP FOR INDIANA
NATIONAL WEATHER SERVICE INDIANAPOLIS IN
500 PM EDT WED JUL 27 2016

NOTE: "FAIR" INDICATES FEW OR NO CLOUDS BELOW 12,000 FEET WITH NO
SIGNIFICANT WEATHER AND/OR OBSTRUCTIONS TO VISIBILITY.

* - STATION DOES NOT REPORT WEATHER SUCH AS PRECIPITATION OR FOG.

+ - STATION NOT QUALITY CONTROLLED BY THE NATIONAL WEATHER SERVICE.
    USE DATA WITH CAUTION...ESPECIALLY DEWPOINT AND RELATIVE
    HUMIDITY OBSERVATIONS.

INZ001>003-010>013-019-020-272200-
NORTHWEST INDIANA

CITY           SKY/WX    TMP DP  RH WIND       PRES   REMARKS
GARY /AIRPORT/ MOSUNNY   88  68  51 SE5       29.94F
KNOX *+        SUNNY     84  50  30 CALM      29.95F
LA PORTE +     SUNNY     88  67  49 SW6       29.96F
MICHIGAN CITY+ SUNNY     84  64  51 N5        29.96F
MONTICELLO +   SUNNY     85  62  46 CALM      29.96F
RENSSELAER +   MOSUNNY   84  64  51 CALM      29.96F
VALPARAISO     SUNNY     87  64  46 S3        29.95F

$$

LMZ046-743>745-272200-
SOUTHERN LAKE MICHIGAN

STATION/POSITION TIME  TEMP    WIND        PRES    WAVE
                       AIR SEA DIR/SP/G            HT
                 (UTC) (F)     (DEG/KT/KT) (MB)    (FT)
BURNS HARBOR     2000   80      80/ 10/ 11 1014.9F
MICHIGAN CITY    2000   78      20/  6/  6   N/A
5NW MICH CITY    2100   79 78   80/  8/ 10   N/A     0

$$

INZ004-005-014>016-021>024-272200-
NORTH CENTRAL INDIANA

CITY           SKY/WX    TMP DP  RH WIND       PRES   REMARKS
ELKHART        MOSUNNY   86  68  54 W8        29.96F
GOSHEN         MOSUNNY   87  59  38 SW8       29.96F
LOGANSPORT +   SUNNY     86  61  42 CALM      29.96F
PERU/GRISSOM   SUNNY     87  64  46 VRB5      29.95F
ROCHESTER +    SUNNY     88  66  48 CALM      29.96F
SOUTH BEND     MOSUNNY   85  66  53 NW6       29.96F
WARSAW +       MOSUNNY   86  63  45 N6        29.96F

$$

INZ006>009-017-018-025>027-272200-
NORTHEAST INDIANA

CITY           SKY/WX    TMP DP  RH WIND       PRES   REMARKS
ANGOLA *+        N/A     88  64  45 VRB3      29.97F
AUBURN +       SUNNY     90  52  27 W7        29.96F
FORT WAYNE     MOSUNNY   88  58  36 NW6       29.96F
HUNTINGTON +   SUNNY     85  60  43 N3        29.95F

$$

INZ028-029-035-036-043>045-051>053-272200-
WEST CENTRAL INDIANA

CITY           SKY/WX    TMP DP  RH WIND       PRES   REMARKS
CRAWFORDSVL +  MOSUNNY   82  65  55 CALM      29.97F
GREENCASTLE +  CLOUDY    84  73  70 CALM      29.97F
LAFAYETTE      MOSUNNY   86  65  49 VRB3      29.95F
TERRE HAUTE    CLOUDY    88  68  51 CALM      29.96F

$$

INZ030>032-037>040-046>048-054>057-064-065-272200-
CENTRAL INDIANA

CITY           SKY/WX    TMP DP  RH WIND       PRES   REMARKS
COLUMBUS       MOSUNNY   84  72  65 N6        29.97F
FISHERS *+     MOSUNNY   88  68  51 N3        29.95F
INDIANAPOLIS   PTSUNNY   87  64  46 CALM      29.96F
-EAGLE CREEK   SUNNY     89  65  44 NW8       29.95F
KOKOMO *+      MOSUNNY   90  64  43 N6        29.96F
MARION +       SUNNY     85  61  43 CALM      29.97F HAZE
MT COMFORT *+  SUNNY     84  66  54 NE6       29.98F
SHELBYVILLE    SUNNY     89  66  46 N5        29.96F
ZIONSVILLE +   SUNNY     83  62  49 CALM      29.98F

$$

INZ033-034-041-042-049-050-058-059-272200-
EAST CENTRAL INDIANA

CITY           SKY/WX    TMP DP  RH WIND       PRES   REMARKS
MUNCIE         SUNNY     89  62  40 N5        29.97F

$$

INZ060-061-067>069-081>083-085>088-272200-
SOUTHWEST INDIANA

CITY           SKY/WX    TMP DP  RH WIND       PRES   REMARKS
EVANSVILLE     CLOUDY    82  74  76 NE10      29.92F
HUNTINGBURG *+ MOSUNNY   79  73  83 NW3       29.94F
WASHINGTON +   CLOUDY    84  78  81 MISG      29.94F

$$

INZ062-063-066-070>080-084-089>092-272200-
SOUTH CENTRAL AND SOUTHEAST INDIANA

CITY           SKY/WX    TMP DP  RH WIND       PRES   REMARKS
BLOOMINGTON    CLOUDY    84  69  60 N7        29.97F
MADISON *+     CLOUDY    88  68  51 CALM      29.98F
NORTH VERNON + CLOUDY    88  73  62 NW5       29.97F HX  96
SEYMOUR +      MOSUNNY   88  70  55 CALM      29.95F

$$





USA.gov is the U.S. government's official web portal to all federal, state and local government web resources and services.